www.pogodaiklimat.ru
ПОГОДА в Бедфорде
Время
и дата
04:35 29.01
04:55 29.01
05:15 29.01
05:35 29.01
05:55 29.01
06:15 29.01
06:35 29.01
06:55 29.01
07:15 29.01
07:35 29.01
07:55 29.01
08:15 29.01
08:35 29.01
08:55 29.01
09:15 29.01
09:35 29.01
09:55 29.01
10:15 29.01
10:35 29.01
10:55 29.01
11:15 29.01
11:35 29.01
11:55 29.01
12:15 29.01
12:35 29.01
12:55 29.01
13:15 29.01
13:35 29.01
13:55 29.01
14:15 29.01
14:35 29.01
14:55 29.01
15:15 29.01
15:35 29.01
15:55 29.01
16:15 29.01
16:35 29.01
16:55 29.01
17:15 29.01
17:35 29.01
17:55 29.01
18:15 29.01
18:35 29.01
18:55 29.01
19:15 29.01
19:35 29.01
19:55 29.01
20:15 29.01
Ветер
(напр.,м/с)
Видим. Явления Облачность Т
(С)
Тd
(С)
f
(%)
Тe
(С)
Тes
(С)
Комфортность P
(гПа)
Po
(гПа)
Тmin
(С)
Tmax
(С)
R
(мм)
R24
(мм)
S
(см)
штиль 0 16 км 8/0 2250 m
[Ac]
-2.8 -3.1 98 -4 -4 980.4
штиль 0 16 км 8/0 2250 m
[Ac]
-2.6 -3.0 97 -4 -4 980.4
штиль 0 16 км 8/0 2250 m
[Ac]
-2.7 -3.0 98 -4 -4 979.7
штиль 0 16 км 5/0 3300 m
[Ac]
-2.8 -3.1 98 -4 -4 979.7
штиль 0 16 км 5/0 3000 m
[Ac]
-2.6 -3.0 97 -4 -4 979.7
штиль 0 16 км 8/0 3000 m
[Ac]
-2.5 -2.8 98 -4 -4 979.4
штиль 0 16 км 8/0 3000 m
[Ac]
-2.4 -2.6 99 -4 -4 979.7
штиль 0 16 км 10/0 2250 m
[Ac]
-2.0 -2.2 99 -3 -3 979.7 -3.5 -1.8
штиль 0 16 км 10/0 2250 m
[Ac]
-1.7 -2.0 98 -3 -3 979.7
штиль 0 16 км 10/0 2100 m
[Ac]
-1.4 -1.7 98 -3 -3 979.4
СЗ 2 16 км 10/0 2100 m
[Ac]
-1.6 -2.0 97 -6 -6 979.1
штиль 0 16 км 8/0 3000 m
[Ac]
-1.5 -1.7 99 -3 -3 978.4
штиль 0 16 км 10/0 2700 m
[Ac]
-1.0 -1.3 98 -2 -2 978.8
штиль 0 16 км 10/0 2400 m
[Ac]
-0.5 -0.8 98 -2 -2 979.1
штиль 0 16 км 10/0 2400 m
[Ac]
-0.2 -0.7 96 -2 -1 979.4
штиль 0 16 км 10/0 2400 m
[Ac]
-0.1 -0.5 97 -1 -1 979.4
штиль 0 16 км 10/8 1950 m
[Ac]
0.0 -0.2 99 -1 -1 979.7
штиль 0 16 км 10/10 1950 м +0.3 -0.2 96 -1 -1 979.4
штиль 0 16 км 10/10 1950 м +0.8 -0.4 92 0 0 979.7
штиль 0 16 км 10/10 1950 м +0.5 0.0 96 -1 -1 978.8
штиль 0 16 км 10/8 1470 m
[Ac]
+1.0 0.0 93 0 0 978.4
штиль 0 16 км 10/8 1320 m
[Ac]
+1.7 +0.1 89 +1 +1 978.4
штиль 0 16 км 10/10 1200 м +1.4 +1.0 97 0 0 977.8
штиль 0 16 км 10/10 1080 м +2.0 +0.4 89 +1 +1 977.5
штиль 0 16 км 10/10 1020 м +2.0 +0.6 90 +1 +1 977.5
штиль 0 16 км слабый снег 10/10 960 m
[Ns]
+2.0 +1.3 95 +1 +1 977.1 -2.1 +2.4
штиль 0 16 км 10/10 840 м +3.3 +2.0 91 +2 +2 976.8
штиль 0 16 км 10/10 840 м +4.6 +0.8 76 +4 +4 976.8
ЮВ 2 16 км 10/10 840 м +5.0 -0.4 68 +3 +3 976.5
ЮВ 2 16 км 10/10 780 м +5.1 0.0 70 +3 +3 976.5
штиль 0 16 км 10/10 720 м +5.6 +0.3 69 +5 +5 976.5
ЮЗ 3 16 км 10/10 720 м +6.2 +1.2 70 +3 +3 976.5
ЮЗ 4 16 км 10/10 720 м +7.3 +2.5 72 +4 +4 976.8
ЮЗ 3 16 км 10/10 720 м +7.2 +2.5 72 +4 +4 976.8
ЮЗ 3 16 км 10/10 720 м +7.2 +2.6 73 +4 +4 977.1
ЮЗ 3 16 км 10/10 720 м +7.1 +2.5 73 +4 +4 977.5
ЮЗ 2 16 км 10/10 720 м +6.9 +2.4 73 +5 +5 977.5
З 2 16 км 10/10 720 м +7.0 +2.2 71 +5 +5 977.8
З 3 16 км 10/10 720 м +6.8 +2.1 72 +4 +4 977.8
З 3 16 км 10/10 660 м +6.7 +2.0 72 +4 +4 978.1
ЮЗ 2 16 км 10/10 660 м +6.6 +2.2 73 +5 +5 978.1
З 2 16 км 10/10 660 м +6.5 +2.3 75 +4 +4 977.8
ЮЗ 2 16 км 10/10 600 м +6.3 +2.3 76 +4 +4 978.1
ЮЗ 2 16 км 10/10 600 м +6.2 +2.3 76 +4 +4 978.8 +2.0 +7.3
З 2 16 км 10/10 600 м +6.5 +2.4 75 +4 +4 978.8
ЮЗ 2 16 км 10/10 540 м +6.4 +2.5 76 +4 +4 979.1
ЮЗ 2 16 км 10/10 540 м +6.2 +2.5 77 +4 +4 979.1
Ю 2 16 км 10/10 480 м +6.1 +2.6 78 +4 +4 979.1
Местоположение метеостанции Bedford County Airport: широта 40.0853 долгота -78.5122 высота над уровнем моря 351 м.
В архиве по умолчанию представлена погода в Бедфорде за последние 1-2 суток. Обновление информации о фактической погоде в базе происходит ежечасно! Архивные данные за месяц целиком и за предыдущие месяцы Вы можете получить, выбрав интересующий диапазон дат из раскрывающегося списка и нажав кнопку "Ввод!".
Внимание! Архив погоды МЕТАР в базе сайта по станциям, не включенным в климатический монитор, хранится не более 60 дней. Нет смысла пытаться выбрать более раннюю дату.
*Определитесь, кто Вы:
Внимание! Время в таблицах - местное (без учета летнего времени). Для получения всемирного времени необходимо вычесть поправку, которая равна -5 ч.
Смотрите также архив погоды в соседних городах и на ближайших метеорологических станциях:
Партнеры нашего сайта:      
Пояснения к столбцам:
  • Ветер - указаны скорость ветра в м/с - средняя за 10 мин, порывы в срок и между сроками (в фигурных скобках) и направление, откуда дует ветер: С - северный,
  • СВ - северо-восточный, В - восточный, ЮВ - юго-восточный, Ю - южный, ЮЗ - юго-западный, З - западный, СЗ - северо-западный.
  • Видимость - горизонтальная дальность видимости в метрах или километрах. При видимости от 1 до 10 км при отсутствии осадков обычно наблюдается дымка, при ухудшении видимости до 1 км и менее - туман. В сухую погоду видимость может ухудшаться дымом, пылью или мглою.
  • Явления - указаны атмосферные явления, наблюдавшиеся в срок или в последний час перед сроком; фигурными скобками обозначены явления, наблюдавшиеся между сроками (за 1-3 часа до срока); квадратными скобками обозначены град или гололедные отложения с указанием их диаметра в мм.
  • Облачность - указаны через наклонную черту общая и нижняя облачность в баллах и высота нижней границы облаков в метрах; квадратными скобками обозначены формы облаков: Ci - перистые, Cs - перисто-слоистые, Cc - перисто-кучевые, Ac - высококучевые, As - высокослоистые, Sc - слоисто-кучевые, Ns - слоисто-дождевые, Cu - кучевые, Cb - кучево-дождевые. Подробнее классификацию облаков см. в Атласе облаков (PDF).
  • T - Температура воздуха - температура, измеренная на высоте 2 м над землей.
  • Td - Температура точки росы - температура, при понижении до которой содержащийся в воздухе водяной пар достигнет насыщения.
  • f - Относительная влажность воздуха - влажноcть воздуха, измеренная на высоте 2 м над землей.
  • Te - Эффективная температура - температура, которую ощущает одетый по сезону человек в тени. Характеристика душности погоды. При расчете учитывается влияние влажности воздуха и скорости ветра на теплоощущения человека.
  • Tes - Эффективная температура на солнце - температура, которую ощущает человек, с поправкой на солнечный нагрев. Характеристика знойности погоды. Зависит от высоты солнца над горизонтом, облачности и скорости ветра. Ночью, в пасмурную погоду, а также при ветре 12 м/с и более поправка равна нулю.
  • P - Атмосферное давление - приведенное к уровню моря атмосферное давление.
  • Po - Атмосферное давление - измеренное на уровне метеостанции атмосферное давление.
  • Tmin - Минимальная температура - минимум температуры воздуха на высоте 2 м над землей.
  • Tmax - Максимальная температура - максимум температуры воздуха на высоте 2 м над землей.
  • R - Количество осадков - Количество выпавших осадков за период времени, мм. При наведении курсора мыши на число - период времени, за который выпало указанное количество осадков.
  • R24 - Количество осадков - Количество выпавших осадков за 24 часа, мм.
  • S - Снежный покров - Высота снежного покрова, см. При наведении курсора мыши на число - состояние снежного покрова и степень покрытия местности в баллах.